Home   Weather   Spain   Barcelona   Past weeks
Flag for Spain

Past Weather in Barcelona, Barcelona, Spain — Yesterday and Last 2 Weeks

Currently: 63 °F. Passing clouds. (Weather station: Barcelona Airport, Spain). See more current weather

Past Weather in Barcelona — Graph

°F

Barcelona Temperature Yesterday

Maximum temperature yesterday: 68 °F (at 1:00 pm)
Minimum temperature yesterday: 55 °F (at 7:30 am)
Average temperature yesterday: 63 °F

High & Low Weather Summary for the Past Weeks

 TemperatureHumidityPressure
High75 °F (Apr 13, 11:30 am)100% (Apr 8, 4:00 am)30.45 "Hg (Apr 8, 4:00 am)
Low46 °F (Apr 10, 6:00 am)29% (Apr 14, 1:00 pm)29.74 "Hg (Apr 8, 7:00 pm)
Average60 °F68%30.13 "Hg
* Reported Apr 1 3:00 pm — Apr 16 3:00 pm, Barcelona. Weather by CustomWeather, © 2024

Note: Actual official high and low records may vary slightly from our data, if they occured in-between our weather recording intervals... More about our weather records

Barcelona Weather History for the Previous 24 Hours

Scroll right to see more
 ConditionsComfort  
Time TempWeatherWind HumidityBarometerVisibility
3:00 pm
Tue, Apr 16
63 °FPassing clouds.12 mph56%29.95 "HgN/A
2:30 pm63 °FPassing clouds.13 mph56%29.95 "HgN/A
2:00 pm63 °FPassing clouds.13 mph56%29.95 "HgN/A
1:30 pm63 °FPassing clouds.13 mph56%29.95 "HgN/A
1:00 pm63 °FPassing clouds.14 mph52%29.98 "HgN/A
12:30 pm63 °FPassing clouds.13 mph52%29.98 "HgN/A
12:00 pm63 °FPassing clouds.12 mph52%29.98 "HgN/A
11:30 am63 °FPassing clouds.6 mph49%29.98 "HgN/A
11:00 am64 °FPassing clouds.12 mph46%29.98 "HgN/A
10:30 am63 °FPassing clouds.13 mph49%29.98 "HgN/A
10:00 am61 °FPassing clouds.14 mph48%29.98 "HgN/A
9:30 am59 °FPassing clouds.13 mph51%29.98 "HgN/A
9:00 am57 °FPassing clouds.15 mph55%29.98 "HgN/A
8:30 am57 °FPassing clouds.15 mph55%29.98 "HgN/A
8:00 am55 °FPassing clouds.14 mph55%30.01 "HgN/A
7:30 am55 °FPassing clouds.13 mph55%29.98 "HgN/A
7:00 am55 °FPassing clouds.12 mph55%29.98 "HgN/A
6:30 am57 °FPassing clouds.15 mph51%29.98 "HgN/A
6:00 am57 °FPassing clouds.13 mph51%29.98 "HgN/A
5:30 am57 °FPassing clouds.13 mph55%29.98 "HgN/A
5:00 am59 °FPassing clouds.13 mph59%30.01 "HgN/A
4:30 am59 °FPassing clouds.6 mph82%30.01 "HgN/A
4:00 am59 °FPassing clouds.6 mph82%30.01 "HgN/A
3:30 am59 °FPassing clouds.6 mph88%30.01 "HgN/A
3:00 am61 °FPassing clouds.3 mph83%30.01 "HgN/A
2:30 am61 °FPassing clouds.2 mph88%30.04 "HgN/A
2:00 am63 °FPartly cloudy.3 mph88%30.04 "HgN/A
1:30 am63 °FPartly cloudy.3 mph88%30.04 "HgN/A
1:00 am63 °FPassing clouds.3 mph88%30.04 "HgN/A
12:30 am63 °FPassing clouds.3 mph88%30.04 "HgN/A
12:00 am63 °FPassing clouds.3 mph88%30.04 "HgN/A
11:30 pm
Mon, Apr 15
63 °FPassing clouds.3 mph88%30.04 "HgN/A
11:00 pm63 °FClear.5 mph83%30.04 "Hg10 mi
10:30 pm63 °FClear.7 mph83%30.04 "Hg10 mi
10:00 pm63 °FClear.8 mph88%30.04 "Hg10 mi
9:30 pm64 °FClear.6 mph83%30.04 "Hg10 mi
9:00 pm64 °FClear.5 mph78%30.04 "Hg10 mi
8:30 pm64 °FPassing clouds.3 mph78%30.04 "HgN/A
8:00 pm64 °FPassing clouds.5 mph78%30.01 "HgN/A
7:30 pm66 °FPassing clouds.5 mph68%30.04 "HgN/A
7:00 pm66 °FPassing clouds.7 mph73%30.01 "HgN/A
6:30 pm66 °FPassing clouds.7 mph68%30.04 "HgN/A
6:00 pm66 °FPassing clouds.7 mph68%30.04 "HgN/A
5:30 pm66 °FPassing clouds.8 mph68%30.04 "HgN/A
5:00 pm68 °FPassing clouds.7 mph64%30.04 "HgN/A
4:30 pm68 °FSunny.8 mph60%30.04 "Hg10 mi
4:00 pm68 °FPassing clouds.5 mph60%30.04 "HgN/A
Weather by CustomWeather, © 2024

See weather overview